SPACEBEENZ-17 (52397 NORAD) Tracking and Keplerian Element Data
This shows tracking and keplerian element data for the satellite.
Feedback or suggestion? Click here.
Element | Value |
Catalog | 52397 |
Name | SPACEBEENZ-17 |
Epoch Orbit | 812 |
Epoch Day | 166.95298577 |
Epoch Year | 2022 |
RAAN | 251.8966 |
Inclination | 97.4504 |
Eccentricity | 0.0010031 |
Argument of Perigee | 170.2214 |
Mean Anonmoly | 189.9215 |
Mean Motion | 15.13709778 |
Decay Rate | 0.00014021 |
L1 | 1 52397U 22047D 22166.95298577 .00014021 00000+0 78043-3 0 9992 |
L2 | 2 52397 97.4504 251.8966 0010031 170.2214 189.9215 15.13709778 8120 |
Live tracking and technical data element details for SPACEBEENZ-17 (NORAD 52397). SPACEBEENZ-17 can be tracked NOW for your location showing map with azimuth and elevation plus other details from your city location.
Track the satellite on the map from your city or location and see movement details for azimuth, elevation, latitude, longitude, range, height, and movement on the map or in text.
IsCatalogInMostPopularTable: catalog: 52397, numindb: 1
Update: records affected: 1
GetName: 52397 SPACEBEENZ-17
Hit Count: updated at: Mon, 27 Jun 2022 04:55:09 GMT